Weather reports worldwide

Advertisment
Dorans, France (7296): temperature & dewpoint: 14.01.2021 14:00:00 - 20.01.2021 14:00:00 (CET)Dorans, France (7296): temperature 5cm: 14.01.2021 14:00:00 - 20.01.2021 14:00:00 (CET)Dorans, France (7296): temperature -20cm & temperature -100cm: 14.01.2021 14:00:00 - 20.01.2021 14:00:00 (CET)Dorans, France (7296): wind speed & gusts: 14.01.2021 14:00:00 - 20.01.2021 14:00:00 (CET)Dorans, France (7296): wind direction: 14.01.2021 14:00:00 - 20.01.2021 14:00:00 (CET)Dorans, France (7296): reduced air pressure: 14.01.2021 14:00:00 - 20.01.2021 14:00:00 (CET)Dorans, France (7296): visibility: 14.01.2021 14:00:00 - 20.01.2021 14:00:00 (CET)Dorans, France (7296): precipitation: 14.01.2021 14:00:00 - 20.01.2021 14:00:00 (CET)
Date & Time tt [°C] td [°C] tt 5cm [°C] tt -20cm [°C] tt -100cm [°C] ff [km/h] ff [kn] fx [km/h] fx [kn] dd ppp [hPa] vv [km] rr [mm]
20.01.2021 14:00:00 7,5 0,2 - - - 8 4 11 6 ESE 1007,0 19 0,0
20.01.2021 13:00:00 6,7 -1,2 10,0 2,0 5,8 3 2 7 4 ESE 1007,9 20 0,0
20.01.2021 12:00:00 6,2 -1,9 4,9 2,0 5,8 2 1 7 4 NNW 1009,3 20 0,0
20.01.2021 11:00:00 3,1 -3,5 2,1 2,1 5,8 2 1 6 3 N 1010,6 20 0,0
20.01.2021 10:00:00 1,7 -3,2 -1,7 2,1 5,8 3 1 8 5 E 1011,3 20 0,0
20.01.2021 09:00:00 -0,2 -2,9 -2,0 2,1 5,8 5 3 7 4 NNE 1012,1 20 0,0
20.01.2021 08:00:00 0,6 -3,1 -2,6 2,1 5,8 3 2 6 3 E 1012,4 20 0,0
20.01.2021 07:00:00 0,0 -3,6 -3,5 2,1 5,8 1 1 7 4 ENE 1012,9 20 0,0
20.01.2021 06:00:00 -1,0 -2,9 -3,6 2,1 5,8 3 2 7 4 S 1013,7 20 0,0
20.01.2021 05:00:00 -1,2 -3,1 -3,2 2,1 5,8 3 2 8 4 W 1014,1 20 0,0
20.01.2021 04:00:00 -0,9 -2,9 -3,7 2,1 5,8 3 1 7 4 SE 1014,7 20 0,0
20.01.2021 03:00:00 -0,6 -2,8 -2,9 2,2 5,8 2 1 6 3 N 1014,8 20 0,0
20.01.2021 02:00:00 -0,3 -2,2 -3,3 2,1 5,8 2 1 8 4 SE 1015,2 20 0,0
20.01.2021 01:00:00 -0,5 -2,6 -2,5 2,1 5,8 5 3 8 5 N 1015,9 20 0,0
20.01.2021 00:00:00 2,3 -2,6 -0,8 2,1 5,8 6 3 14 8 WNW 1015,9 20 0,0
19.01.2021 23:00:00 2,1 -2,6 -2,0 2,1 5,8 11 6 16 8 NW 1016,5 20 0,0
19.01.2021 22:00:00 0,3 -1,8 -1,5 2,1 5,8 6 4 10 6 NNW 1017,5 20 0,0
19.01.2021 21:00:00 1,4 -2,2 -0,2 2,1 5,8 5 3 14 8 WSW 1017,5 20 0,0
19.01.2021 20:00:00 2,6 -2,1 1,0 2,1 5,8 9 5 11 6 NW 1018,0 20 0,0
19.01.2021 19:00:00 2,4 -1,4 0,9 2,1 5,8 3 1 10 5 WNW 1018,2 20 0,0
19.01.2021 18:00:00 2,6 -1,9 1,4 2,1 5,8 5 3 13 7 WNW 1018,5 20 0,0
19.01.2021 17:00:00 3,1 -1,8 1,9 2,1 5,8 4 2 16 9 W 1018,6 20 0,0
19.01.2021 16:00:00 3,9 -2,3 3,3 2,1 5,8 12 7 21 12 WNW 1018,9 20 0,0
19.01.2021 15:00:00 3,3 -2,2 3,4 2,1 5,8 14 8 29 16 WNW 1019,5 20 0,0
19.01.2021 14:00:00 3,1 -2,6 3,6 2,1 5,8 13 7 26 14 WNW 1019,7 20 0,0
19.01.2021 13:00:00 3,3 -2,7 3,9 2,1 5,8 13 7 23 12 WNW 1020,5 20 0,0
19.01.2021 12:00:00 2,5 -2,4 2,7 2,1 5,8 10 5 19 10 W 1021,5 20 0,0
19.01.2021 11:00:00 0,9 -2,5 -0,1 2,1 5,8 5 3 15 8 WNW 1022,6 20 0,0
19.01.2021 10:00:00 0,3 -3,3 -1,0 2,1 5,8 13 7 25 14 W 1023,0 20 0,0
19.01.2021 09:00:00 -0,1 -3,3 -2,3 2,1 5,8 14 7 28 15 W 1023,1 20 0,0
19.01.2021 08:00:00 -0,7 -3,1 -4,7 2,2 5,8 11 6 22 12 W 1023,6 20 0,0
19.01.2021 07:00:00 -1,7 -3,0 -4,8 2,2 5,8 8 5 18 10 WSW 1024,4 20 0,0
19.01.2021 06:00:00 -1,6 -2,7 -4,5 2,2 5,8 9 5 16 9 SW 1024,7 20 0,0
19.01.2021 05:00:00 -1,6 -2,3 -4,3 2,2 5,8 9 5 16 9 WSW 1025,5 20 0,0
19.01.2021 04:00:00 -1,0 -2,3 -2,8 2,2 5,8 11 6 16 8 SW 1025,8 20 0,0
19.01.2021 03:00:00 -0,5 -1,9 -2,4 2,2 5,8 10 6 17 9 SW 1026,2 20 0,0
19.01.2021 02:00:00 0,2 -1,7 -1,3 2,2 5,8 11 6 17 9 SW 1026,5 20 0,0
19.01.2021 01:00:00 0,5 -1,1 -0,5 2,2 5,8 8 4 13 7 WSW 1027,3 20 0,0
19.01.2021 00:00:00 0,3 -0,6 -0,5 2,1 5,8 6 4 14 7 WSW 1028,2 18 0,0
18.01.2021 23:00:00 0,6 -0,7 -0,2 2,1 5,8 8 5 15 8 SW 1028,2 20 0,0
18.01.2021 22:00:00 0,9 -0,3 0,2 2,1 5,8 10 5 18 10 SW 1028,6 19 0,0
18.01.2021 21:00:00 1,1 0,1 -0,1 2,2 5,8 10 6 21 12 WSW 1028,8 20 0,0
18.01.2021 20:00:00 1,0 0,1 0,0 2,2 5,8 9 5 14 8 WSW 1028,9 19 0,0
18.01.2021 19:00:00 0,9 0,2 0,0 2,1 5,8 8 4 11 6 WSW 1028,8 18 0,0
18.01.2021 18:00:00 1,4 0,4 0,5 2,1 5,8 7 4 15 8 SW 1028,6 20 0,0
18.01.2021 17:00:00 1,6 0,6 0,8 2,1 5,8 6 3 10 6 SW 1028,7 19 0,0
18.01.2021 16:00:00 1,8 0,8 1,3 2,1 5,8 8 4 14 7 SW 1028,6 19 0,0
18.01.2021 15:00:00 1,7 0,7 1,3 2,1 5,8 9 5 19 10 W 1029,1 18 0,0
18.01.2021 14:00:00 1,6 0,9 1,3 2,1 5,8 8 4 18 10 WNW 1029,3 11 0,0
18.01.2021 13:00:00 1,7 1,0 1,4 2,1 5,8 8 4 19 10 WSW 1029,8 16 0,0
18.01.2021 12:00:00 1,3 0,7 1,1 2,1 5,8 10 5 22 12 W 1030,5 13 0,0
18.01.2021 11:00:00 1,2 0,9 0,9 2,1 5,8 8 4 16 9 W 1030,8 7 0,0
18.01.2021 10:00:00 0,9 0,8 0,5 2,1 5,9 9 5 15 8 WSW 1030,5 6 0,0
18.01.2021 09:00:00 0,8 0,7 0,4 2,1 5,9 8 4 17 9 W 1030,2 6 0,0
18.01.2021 08:00:00 0,7 0,6 0,1 2,1 5,9 8 4 18 10 WSW 1029,9 4,3 0,2
18.01.2021 07:00:00 0,8 0,7 0,3 2,1 5,8 6 4 14 8 WSW 1029,6 7 0,0
18.01.2021 06:00:00 0,9 0,8 0,5 2,1 5,9 7 4 16 8 WSW 1029,2 7 0,0
18.01.2021 05:00:00 0,9 0,8 0,5 2,1 5,8 8 4 19 10 WSW 1029,0 8 0,0
18.01.2021 04:00:00 0,9 0,8 0,4 2,1 5,9 10 6 20 11 WSW 1029,2 9 0,0
18.01.2021 03:00:00 0,8 0,7 0,4 2,1 5,9 9 5 22 12 WSW 1029,0 12 0,0
18.01.2021 02:00:00 1,0 0,7 0,5 2,1 5,9 13 7 22 12 WSW 1028,8 11 0,0
18.01.2021 01:00:00 1,1 1,0 0,5 2,1 5,8 11 6 20 11 WSW 1028,8 7 0,0
18.01.2021 00:00:00 1,0 0,7 0,5 2,1 5,9 8 4 19 10 WSW 1028,8 10 0,0
17.01.2021 23:00:00 1,1 1,0 0,6 2,1 5,9 9 5 23 12 W 1028,6 8 0,0
17.01.2021 22:00:00 1,1 1,1 0,5 2,1 5,9 13 7 23 12 W 1028,0 6 0,0
17.01.2021 21:00:00 1,0 0,9 0,5 2,1 5,9 9 5 24 13 W 1027,7 4,1 0,0
17.01.2021 20:00:00 1,0 0,9 0,5 2,1 5,9 10 5 22 12 WSW 1027,3 7 0,0
17.01.2021 19:00:00 1,2 1,1 0,6 2,1 5,9 12 7 27 15 W 1026,7 10 0,0
17.01.2021 18:00:00 1,1 1,1 0,4 2,2 5,9 16 9 28 15 W 1025,9 1,8 0,0
17.01.2021 17:00:00 0,8 0,7 0,4 2,1 5,9 12 7 23 12 WSW 1025,0 2,5 0,0
17.01.2021 16:00:00 0,7 0,6 0,3 2,1 5,9 11 6 27 15 WSW 1024,2 5 0,0
17.01.2021 15:00:00 0,7 0,6 0,5 2,1 5,9 16 9 29 16 WSW 1022,8 7 0,0
17.01.2021 14:00:00 0,5 0,2 0,4 2,1 5,9 13 7 37 20 WSW 1022,3 10 0,0
17.01.2021 13:00:00 0,6 0,3 0,0 2,2 5,9 18 10 35 19 WSW 1022,0 7 0,2
17.01.2021 12:00:00 0,6 0,3 0,1 2,1 5,9 18 10 30 16 W 1022,0 4,1 0,2
17.01.2021 11:00:00 0,5 0,4 0,0 2,1 5,9 12 7 29 16 WSW 1021,9 3,7 0,0
17.01.2021 10:00:00 0,5 0,4 0,0 2,2 5,9 16 9 29 15 WSW 1021,5 3,0 0,2
17.01.2021 09:00:00 0,6 0,5 0,0 2,2 5,9 16 9 35 19 WSW 1021,0 2,7 0,0
17.01.2021 08:00:00 0,5 0,2 0,0 2,2 5,9 17 9 34 18 WSW 1020,4 1,0 0,2
17.01.2021 07:00:00 0,4 0,3 0,0 2,2 5,9 15 8 34 18 WSW 1019,9 0,9 0,0
17.01.2021 06:00:00 0,3 0,2 -0,3 2,1 5,9 11 6 20 11 WSW 1019,7 0,8 0,4
17.01.2021 05:00:00 0,2 0,1 -0,6 2,1 5,9 11 6 21 11 WSW 1019,5 0,9 0,2
17.01.2021 04:00:00 -0,5 -0,6 -2,1 2,2 5,9 11 6 21 11 W 1019,6 0,8 0,8
17.01.2021 03:00:00 -2,2 -2,5 -2,5 2,2 5,9 7 4 11 6 NNW 1019,9 0,8 0,4
17.01.2021 02:00:00 -2,5 -2,9 -2,6 2,1 5,9 3 1 7 4 WNW 1019,9 1,1 0,2
17.01.2021 01:00:00 -2,6 -3,0 -2,8 2,1 5,9 4 2 9 5 WSW 1020,8 0,9 0,2
17.01.2021 00:00:00 -2,8 -3,2 -2,9 2,1 5,9 4 2 9 5 W 1021,9 0,9 0,2
16.01.2021 23:00:00 -2,9 -3,3 -3,0 2,1 5,9 7 4 11 6 NNW 1022,4 1,0 0,8
16.01.2021 22:00:00 -2,9 -3,3 -3,0 2,1 5,9 7 4 9 5 NNW 1023,1 0,8 0,6
16.01.2021 21:00:00 -2,9 -3,4 -3,1 2,1 5,9 4 2 9 5 WNW 1024,4 0,7 0,8
16.01.2021 20:00:00 -2,9 -3,6 -3,3 2,1 5,9 4 2 9 5 WNW 1025,3 1,0 0,0
16.01.2021 19:00:00 -3,0 -3,8 -3,5 2,1 5,9 4 2 11 6 WSW 1026,0 1,4 0,0
16.01.2021 18:00:00 -3,0 -4,0 -3,5 2,1 5,9 6 3 12 6 W 1026,8 1,4 0,0
16.01.2021 17:00:00 -3,2 -4,2 -3,5 2,1 5,9 7 4 18 10 W 1027,3 1,3 0,0
16.01.2021 16:00:00 -3,3 -4,6 -3,5 2,1 5,9 10 6 21 12 WSW 1027,7 1,3 0,0
16.01.2021 15:00:00 -3,3 -4,7 -3,3 2,1 5,9 10 5 19 10 W 1027,8 1,2 0,0
16.01.2021 14:00:00 -3,4 -4,7 -3,0 2,1 5,9 8 4 14 7 SW 1028,3 1,1 0,0
16.01.2021 13:00:00 -3,0 -4,4 -2,8 2,1 5,9 2 1 9 5 ENE 1029,2 1,3 0,0
16.01.2021 12:00:00 -3,5 -4,6 -3,2 2,1 5,9 4 2 16 8 ESE 1029,7 1,2 0,0
16.01.2021 11:00:00 -3,3 -4,3 -3,0 2,1 5,9 7 4 16 8 E 1030,4 1,2 0,0
16.01.2021 10:00:00 -3,4 -4,4 -3,4 2,1 5,9 5 3 13 7 SE 1030,4 1,1 0,0
16.01.2021 09:00:00 -3,5 -4,8 -3,6 2,1 5,9 7 4 14 8 ESE 1030,5 1,1 0,0
16.01.2021 08:00:00 -3,4 -4,4 -3,2 2,2 5,9 7 4 16 8 SE 1030,3 1,1 0,0
16.01.2021 07:00:00 -3,4 -4,1 -3,2 2,2 5,9 5 3 15 8 ENE 1030,5 1,1 0,0
16.01.2021 06:00:00 -3,3 -3,8 -3,3 2,1 5,9 5 3 9 5 ENE 1030,6 0,8 0,0
16.01.2021 05:00:00 -3,4 -3,9 -3,3 2,2 5,9 2 1 14 7 S 1030,7 0,7 0,0
16.01.2021 04:00:00 -3,5 -3,9 -3,5 2,2 5,9 8 4 18 10 SE 1030,6 0,6 0,0
16.01.2021 03:00:00 -3,5 -3,9 -3,6 2,2 5,9 10 5 19 10 E 1030,7 0,6 0,0
16.01.2021 02:00:00 -3,9 -4,3 -7,0 2,2 5,9 6 3 18 10 E 1030,5 0,6 0,0
16.01.2021 01:00:00 -4,9 -5,6 -7,3 2,2 5,9 9 5 15 8 NE 1030,6 0,6 0,0
16.01.2021 00:00:00 -4,2 -4,6 -6,7 2,2 5,9 6 3 10 6 ENE 1030,5 0,7 0,0
15.01.2021 23:00:00 -4,9 -5,3 -8,1 2,2 5,9 4 2 8 4 ESE 1030,4 0,6 0,0
15.01.2021 22:00:00 -4,8 -5,3 -7,7 2,2 5,9 6 3 12 6 ESE 1029,9 0,8 0,0
15.01.2021 21:00:00 -4,2 -4,7 -6,6 2,2 5,9 4 2 9 5 E 1029,3 0,9 0,0
15.01.2021 20:00:00 -4,0 -4,7 -6,4 2,2 5,9 5 3 17 9 E 1029,1 1,0 0,0
15.01.2021 19:00:00 -3,6 -4,4 -5,8 2,2 5,9 9 5 21 11 ESE 1028,5 0,9 0,0
15.01.2021 18:00:00 -2,4 -3,4 -2,7 2,2 5,9 13 7 25 13 E 1027,8 1,0 0,0
15.01.2021 17:00:00 -1,9 -3,2 -2,0 2,2 5,9 12 7 21 12 ESE 1026,7 1,0 0,0
15.01.2021 16:00:00 -1,8 -3,1 -1,7 2,2 5,9 13 7 26 14 ESE 1025,6 0,9 0,0
15.01.2021 15:00:00 -1,7 -2,5 -1,4 2,2 5,9 11 6 24 13 E 1024,7 0,9 0,0
15.01.2021 14:00:00 -1,4 -2,2 -1,0 2,2 6,0 12 6 25 13 E 1023,8 0,8 0,0
15.01.2021 13:00:00 -1,2 -1,9 -0,6 2,2 5,9 11 6 27 14 E 1023,4 0,8 0,0
15.01.2021 12:00:00 -0,6 -0,9 -0,4 2,1 5,9 13 7 29 16 E 1022,9 0,6 0,2
15.01.2021 11:00:00 -0,7 -1,0 -0,4 2,2 5,9 13 7 28 15 E 1022,2 0,7 0,0
15.01.2021 10:00:00 -0,6 -0,7 -0,6 2,2 6,0 13 7 28 15 E 1021,0 0,6 0,4
15.01.2021 09:00:00 -0,7 -0,8 -0,7 2,1 5,9 15 8 29 15 E 1020,1 0,5 0,4
15.01.2021 08:00:00 -0,7 -0,7 -0,6 2,2 5,9 13 7 23 12 E 1019,0 0,5 0,8
15.01.2021 07:00:00 -0,6 -0,7 -0,5 2,2 6,0 11 6 25 13 E 1018,2 0,5 0,4
15.01.2021 06:00:00 -0,5 -0,6 -0,4 2,2 6,0 11 6 24 13 E 1017,3 0,5 0,8
15.01.2021 05:00:00 -0,3 -0,3 -0,2 2,2 6,0 10 5 22 12 E 1016,8 0,5 0,6
15.01.2021 04:00:00 -0,2 -0,2 -0,1 2,2 6,0 10 5 19 10 ENE 1016,3 0,5 0,6
15.01.2021 03:00:00 -0,2 -0,2 -0,1 2,2 6,0 11 6 21 11 ENE 1016,1 0,7 0,6
15.01.2021 02:00:00 -0,2 -0,2 -0,1 2,2 6,0 9 5 17 9 ENE 1015,7 0,8 0,8
15.01.2021 01:00:00 -0,2 -0,2 -0,2 2,2 6,0 9 5 16 9 E 1015,7 1,0 0,6
15.01.2021 00:00:00 -0,2 -0,2 -0,2 2,2 6,0 9 5 16 8 ENE 1015,8 1,3 1,2
14.01.2021 23:00:00 -0,2 -0,3 -0,2 2,2 6,0 9 5 19 10 ENE 1015,8 2,4 0,8
14.01.2021 22:00:00 -0,3 -0,4 -0,2 2,2 6,0 10 5 22 12 ENE 1015,9 2,9 1,6
14.01.2021 21:00:00 -0,3 -0,4 -0,3 2,2 6,0 11 6 26 14 ENE 1016,1 5 1,9
14.01.2021 20:00:00 -0,4 -0,5 -0,3 2,2 6,0 11 6 23 13 ENE 1016,6 9 1,8
14.01.2021 19:00:00 -0,3 -0,3 -0,3 2,2 6,0 11 6 21 11 ENE 1017,5 4,7 1,6
14.01.2021 18:00:00 -0,4 -0,4 -0,3 2,2 6,0 10 5 20 11 ENE 1018,0 4,3 1,2
14.01.2021 17:00:00 -0,3 -0,3 -0,1 2,2 6,0 12 6 24 13 ENE 1018,6 2,8 1,4
14.01.2021 16:00:00 -0,2 -0,2 0,0 2,2 6,1 9 5 25 13 E 1019,0 1,8 1,4
14.01.2021 15:00:00 0,0 -0,1 0,0 2,1 6,1 11 6 25 13 E 1019,2 1,9 1,6
14.01.2021 14:00:00 0,3 0,2 0,2 2,1 6,1 11 6 21 11 E 1019,4 3,8 2,7

tt = temperature
td = dewpoint
tt 5cm = temperature 5cm
tt -20cm = temperature -20cm
tt -100cm = temperature -100cm
ff = wind speed
fx = gusts
dd = wind direction
ppp = reduced air pressure
vv = visibility
rr = precipitation

Next stations